Sacramento, CA

12:07 AM PST on February 08, 2016 (GMT -0800)
Sacramento International

Weather History for KSMF - March, 2013

Change the Weather History Date:

Friday, March 1, 2013

  Actual Average Record
Temperature  
Mean Temperature 55 °F -  
Max Temperature 73 °F 59 °F 74 °F (1954)
Min Temperature 37 °F 43 °F 32 °F (1955)
Degree Days  
Heating Degree Days 10    
Growing Degree Days 5 (Base 50)    
Moisture  
Dew Point 45 °F    
Average Humidity 67    
Maximum Humidity 96    
Minimum Humidity 39    
Precipitation  
Precipitation 0.00 in - - ()
Sea Level Pressure  
Sea Level Pressure 30.33 in    
Wind  
Wind Speed 2 mph (NW)    
Max Wind Speed 9 mph    
Max Gust Speed -    
Visibility 10 miles    
Events      
Averages and records for this station are not official NWS values.
T = Trace of Precipitation, MM = Missing Value Source: NWS Daily Summary

Daily Weather History Graph

Daily Weather History Graph

Search for Another Location

Airport or City:

Trip Planner

Search our weather history database for the weather conditions in past years. The results will help you decide how hot, cold, wet, or windy it might be!

Date:

Astronomy

Mar. 01, 2013 Rise Set
Actual Time 6:38 AM PST 5:59 PM PST
Civil Twilight 6:11 AM PST 6:26 PM PST
Nautical Twilight 5:40 AM PST 6:57 PM PST
Astronomical Twilight 5:09 AM PST 7:27 PM PST
Moon 10:35 PM PST (3/1) 8:31 AM PST (3/1)
Length of Visible Light 12h 14m
Length of Day
11h 21m
Waning Gibbous, 82% of the Moon is Illuminated
Mar 1
Waning Gibbous
Mar 4
Last Quarter
Mar 11
New
Mar 19
First Quarter
Mar 27
Full

Hourly Weather History & Observations

Time (PST) Temp. Windchill Dew Point Humidity Pressure Visibility Wind Dir Wind Speed Gust Speed Precip Events Conditions
12:53 AM 48.2 °F - 42.8 °F 82% 30.42 in 10.0 mi Calm Calm - N/A   Clear
1:53 AM 48.9 °F - 42.1 °F 77% 30.41 in 10.0 mi NW 5.8 mph - N/A   Clear
2:53 AM 48.0 °F - 41.0 °F 77% 30.41 in 10.0 mi Calm Calm - N/A   Clear
3:53 AM 46.4 °F - 41.0 °F 81% 30.40 in 10.0 mi Calm Calm - N/A   Clear
4:53 AM 45.0 °F 41.8 °F 41.0 °F 86% 30.40 in 10.0 mi NW 5.8 mph - N/A   Clear
5:53 AM 42.1 °F - 39.0 °F 89% 30.41 in 10.0 mi Calm Calm - N/A   Clear
6:53 AM 37.0 °F - 36.0 °F 96% 30.41 in 9.0 mi Calm Calm - N/A   Clear
7:53 AM 46.0 °F - 43.0 °F 89% 30.41 in 10.0 mi Calm Calm - N/A   Clear
8:53 AM 54.0 °F - 44.1 °F 69% 30.41 in 10.0 mi WSW 3.5 mph - N/A   Clear
9:53 AM 59.0 °F - 46.4 °F 63% 30.39 in 10.0 mi Calm Calm - N/A   Clear
10:53 AM 62.1 °F - 48.0 °F 60% 30.38 in 10.0 mi NW 5.8 mph - N/A   Clear
11:53 AM 66.9 °F - 48.0 °F 51% 30.36 in 10.0 mi NNW 6.9 mph - N/A   Clear
12:53 PM 69.8 °F - 48.2 °F 46% 30.32 in 10.0 mi NNW 9.2 mph - N/A   Clear
1:53 PM 71.1 °F - 48.0 °F 44% 30.29 in 10.0 mi NNW 4.6 mph - N/A   Clear
2:53 PM 73.0 °F - 46.9 °F 39% 30.27 in 10.0 mi Calm Calm - N/A   Clear
3:53 PM 73.0 °F - 46.9 °F 39% 30.26 in 10.0 mi NW 3.5 mph - N/A   Clear
4:53 PM 73.0 °F - 46.9 °F 39% 30.25 in 10.0 mi Calm Calm - N/A   Clear
5:53 PM 69.8 °F - 46.4 °F 43% 30.24 in 10.0 mi SE 3.5 mph - N/A   Clear
6:53 PM 64.0 °F - 48.0 °F 56% 30.25 in 10.0 mi East 5.8 mph - N/A   Clear
7:53 PM 55.9 °F - 48.0 °F 75% 30.25 in 10.0 mi Calm Calm - N/A   Clear
8:53 PM 55.0 °F - 48.0 °F 77% 30.27 in 10.0 mi Calm Calm - N/A   Clear
9:53 PM 54.0 °F - 46.9 °F 77% 30.26 in 10.0 mi Calm Calm - N/A   Clear
10:53 PM 51.1 °F - 44.1 °F 77% 30.26 in 10.0 mi Calm Calm - N/A   Clear
11:53 PM 50.0 °F - 46.0 °F 86% 30.25 in 10.0 mi Calm Calm - N/A   Clear